Torna al catalogo

STARLINK-33677

AttivoComunicazioniVLEO
NORAD 63410·PAYLOAD·🇺🇸 United States

Lanciato Mar 31, 2025 da Cape Canaveral Space Force Station

Loading…

Prossimi Passaggi (prossime 24 ore)

TLE

AggiornatoSource: CelesTrak SupGP

Epoca: Sep 14, 2026, 21:16 UTC

1 63410C 25065M   26257.88659722 -.00041492  00000+0 -15033-2 0  2573
2 63410  43.0025 118.5291 0001273 271.1607 169.0992 15.27588642    19

Traccia STARLINK-33677 in tempo reale con AllMySat

Download on the App Store